Weather History for Challis, ID

Change the Weather History Date:

Tuesday, March 5, 2013

  Actual Average Record
Temperature  
Mean Temperature 26 °F 32 °F  
Max Temperature 37 °F 44 °F 72 °F (1925)
Min Temperature 14 °F 20 °F -7 °F (1955)
Degree Days  
Heating Degree Days 39 33  
Month to date heating degree days 160 169  
Since 1 July heating degree days 5868 6218  
Cooling Degree Days 0 0  
Month to date cooling degree days 0 0  
Year to date cooling degree days 0 0  
Moisture  
Dew Point 12 °F    
Average Humidity 54    
Maximum Humidity 73    
Minimum Humidity 35    
Precipitation  
Precipitation 0.00 in 0.01 in 0.23 in (1952)
Month to date precipitation 0.00 0.08  
Year to date precipitation 0.35 1.21  
Sea Level Pressure  
Sea Level Pressure 30.14 in    
Wind  
Wind Speed 1 mph (North)    
Max Wind Speed 6 mph    
Max Gust Speed 8 mph    
Visibility 10 miles    
Events      
T = Trace of Precipitation, MM = Missing Value Source: NWS Daily Summary

Daily Weather History Graph

Daily Weather History Graph

Search for Another Location

Airport:

Trip Planner

Search our weather history database for the weather conditions in past years. The results will help you decide how hot, cold, wet, or windy it might be!

Date:

Astronomy

Mar. 05, 2013 Rise Set
Actual Time 7:06 AM MST 6:30 PM MST
Civil Twilight 6:37 AM MST 6:59 PM MST
Nautical Twilight 6:03 AM MST 7:33 PM MST
Astronomical Twilight 5:30 AM MST 8:07 PM MST
Moon 2:33 AM MST (3/5) 12:03 PM MST (3/5)
Length of Visible Light 12h 22m
Length of Day
11h 23m
Last Quarter, 40% of the Moon is Illuminated
Mar 5
Last Quarter
Mar 11
New
Mar 19
First Quarter
Mar 27
Full
Apr 2
Last Quarter

Hourly Weather History & Observations

Time (MST) Temp. Windchill Dew Point Humidity Pressure Visibility Wind Dir Wind Speed Gust Speed Precip Events Conditions
12:55 AM 18.0 °F 12.7 °F 9.0 °F 68% 30.25 in 10.0 mi NW 3.5 mph - N/A   Clear
2:55 AM 17.1 °F 11.7 °F 8.1 °F 68% 30.25 in 10.0 mi NNW 3.5 mph - N/A   Clear
3:55 AM 17.1 °F 8.7 °F 7.0 °F 65% 30.26 in 10.0 mi SE 5.8 mph - N/A   Clear
4:55 AM 15.1 °F 9.4 °F 7.0 °F 70% 30.26 in 10.0 mi WNW 3.5 mph - N/A   Clear
6:55 AM 16.0 °F - 8.1 °F 71% 30.28 in 10.0 mi Calm Calm - N/A   Clear
7:55 AM 17.1 °F - 8.1 °F 68% 30.30 in 10.0 mi Calm Calm - N/A   Clear
8:55 AM 19.0 °F - 8.1 °F 62% 30.30 in 10.0 mi Calm Calm - N/A   Clear
9:55 AM 21.9 °F - 7.0 °F 53% 30.27 in 10.0 mi Calm Calm - N/A   Clear
10:55 AM 26.1 °F - 10.0 °F 51% 30.22 in 10.0 mi Calm Calm - N/A   Clear
11:55 AM 28.0 °F - 10.0 °F 47% 30.20 in 10.0 mi Calm Calm - N/A   Partly Cloudy
12:55 PM 32.0 °F - 10.0 °F 40% 30.16 in 10.0 mi Calm Calm - N/A   Clear
1:55 PM 34.0 °F - 10.9 °F 38% 30.09 in 10.0 mi Calm Calm - N/A   Clear
2:55 PM 36.0 °F 32.1 °F 12.0 °F 37% 30.05 in 10.0 mi NNE 4.6 mph - N/A   Clear
3:55 PM 37.0 °F 33.3 °F 12.0 °F 36% 30.03 in 10.0 mi NNE 4.6 mph - N/A   Clear
4:55 PM 36.0 °F 32.1 °F 12.9 °F 39% 30.03 in 10.0 mi North 4.6 mph - N/A   Clear
5:55 PM 35.1 °F - 14.0 °F 42% 30.03 in 10.0 mi Calm Calm - N/A   Clear
6:55 PM 32.0 °F - 15.1 °F 50% 30.04 in 10.0 mi Calm Calm - N/A   Clear
7:55 PM 30.9 °F - 18.0 °F 59% 30.04 in 10.0 mi Calm Calm - N/A   Scattered Clouds
8:55 PM 30.9 °F - 18.0 °F 59% 30.04 in 10.0 mi Calm Calm - N/A   Clear
9:55 PM 30.0 °F - 18.0 °F 61% 30.02 in 10.0 mi Calm Calm - N/A   Mostly Cloudy
10:55 PM 28.9 °F - 19.0 °F 67% 30.00 in 10.0 mi Calm Calm - N/A   Clear
11:55 PM 27.0 °F 23.0 °F 17.1 °F 66% 29.98 in 10.0 mi SSE 3.5 mph - N/A   Clear